Location: Czekanka
(50.4925°N, 19.2643°E)
Time: 01:12:11
(UTC+00:00)

ADEOS II - Pass Details

Date: 26 September 2024
Orbit: 795 x 798 km, 98.7° (Epoch: 09 October)

Event Time Altitude Azimuth Distance (km) Brightness Sun altitude
Rises 03:10:48 0° 4° (N) 3,312 5.6 -14.2°
Reaches altitude 10° 03:14:00 10° 343° (NNW) 2,377 4.5 -13.7°
Maximum altitude 03:17:02 16° 308° (NW) 1,995 3.8 -13.2°
Enters shadow 03:18:41 14° 287° (WNW) 2,112 3.8 -13.0°
